QPF
0.00 0.00 0.00 0.00 0.00 0.00 0.00 0.00 0.00 0.00 0.00 0.00 0.00 0.00 0.00 0.00 0.00 0.00 0.00 0.00 0.00 0.00 0.00 0.00 0.00 0.00 0.00 0.00 0.00 0.00 0.00 0.00 0.00 0.00 0.00 0.00 0.00 0.00 0.01 0.02 0.02 0.00 0.00 0.01 0.03 0.15 0.14 0.07 0.06
0.00 0.00 0.00 0.00 0.00 0.00 0.00 0.00 0.00 0.00 0.00 0.00 0.00 0.00 0.00 0.00 0.00 0.00 0.00 0.00 0.00 0.00 0.00 0.00 0.00 0.00 0.00 0.00 0.00 0.00 0.00 0.00 0.00 0.00 0.00 0.00 0.00 0.00 0.00 0.00 0.01 0.01 0.01 0.01 0.01 0.03 0.11 0.10 0.07
0.00 0.00 0.00 0.00 0.00 0.00 0.00 0.00 0.00 0.00 0.00 0.00 0.00 0.00 0.00 0.00 0.00 0.00 0.00 0.00 0.00 0.00 0.00 0.00 0.00 0.00 0.00 0.00 0.00 0.00 0.00 0.00 0.00 0.00 0.00 0.00 0.00 0.00 0.00 0.00 0.00 0.01 0.01 0.01 0.01 0.04 0.07 0.09 0.06
0.00 0.00 0.00 0.00 0.00 0.00 0.00 0.00 0.00 0.00 0.00 0.00 0.00 0.00 0.00 0.00 0.00 0.00 0.00 0.00 0.00 0.00 0.00 0.00 0.00 0.00 0.00 0.00 0.00 0.00 0.00 0.00 0.00 0.00 0.00 0.00 0.00 0.00 0.00 0.00 0.00 0.00 0.01 0.00 0.00 0.01 0.05 0.07 0.08
0.00 0.00 0.00 0.00 0.00 0.00 0.00 0.00 0.00 0.00 0.00 0.00 0.00 0.00 0.00 0.00 0.00 0.00 0.00 0.00 0.00 0.00 0.00 0.00 0.00 0.00 0.00 0.00 0.00 0.00 0.00 0.00 0.00 0.00 0.00 0.00 0.00 0.00 0.00 0.00 0.00 0.00 0.00 0.01 0.00 0.00 0.04 0.04 0.04
0.00 0.00 0.00 0.00 0.00 0.00 0.00 0.00 0.00 0.00 0.00 0.00 0.00 0.00 0.00 0.00 0.00 0.00 0.00 0.00 0.00 0.00 0.00 0.00 0.00 0.00 0.00 0.00 0.00 0.00 0.00 0.00 0.00 0.00 0.00 0.00 0.00 0.00 0.00 0.00 0.00 0.00 0.00 0.00 0.01 0.00 0.00 0.00 0.02
0.00 0.00 0.00 0.00 0.00 0.00 0.00 0.00 0.00 0.00 0.00 0.00 0.00 0.00 0.00 0.00 0.00 0.00 0.00 0.00 0.00 0.00 0.00 0.00 0.00 0.00 0.00 0.00 0.00 0.00 0.00 0.00 0.00 0.00 0.00 0.00 0.00 0.00 0.00 0.00 0.00 0.00 0.00 0.00 0.00 0.00 0.00 0.00 0.01
0.00 0.00 0.00 0.00 0.00 0.00 0.00 0.00 0.00 0.00 0.00 0.00 0.00 0.00 0.00 0.00 0.00 0.00 0.00 0.00 0.00 0.00 0.00 0.00 0.00 0.00 0.00 0.00 0.00 0.00 0.00 0.00 0.00 0.00 0.00 0.00 0.00 0.00 0.00 0.00 0.00 0.00 0.00 0.00 0.00 0.00 0.00 0.00 0.00
0.00 0.00 0.00 0.00 0.00 0.00 0.00 0.00 0.00 0.00 0.00 0.00 0.00 0.00 0.00 0.00 0.00 0.00 0.00 0.00 0.00 0.00 0.00 0.00 0.00 0.00 0.00 0.00 0.00 0.00 0.00 0.00 0.00 0.00 0.00 0.00 0.00 0.00 0.00 0.00 0.00 0.00 0.00 0.00 0.00 0.00 0.00 0.00 0.00
0.00 0.00 0.00 0.00 0.00 0.00 0.00 0.00 0.00 0.00 0.00 0.00 0.00 0.00 0.00 0.00 0.00 0.00 0.00 0.00 0.00 0.00 0.00 0.00 0.00 0.00 0.00 0.00 0.00 0.00 0.00 0.00 0.00 0.00 0.00 0.00 0.00 0.00 0.00 0.00 0.00 0.00 0.00 0.00 0.00 0.00 0.01 0.00 0.00
0.00 0.00 0.00 0.00 0.00 0.00 0.00 0.00 0.00 0.00 0.00 0.00 0.00 0.00 0.00 0.00 0.00 0.00 0.00 0.00 0.00 0.00 0.00 0.00 0.00 0.00 0.00 0.00 0.00 0.00 0.00 0.00 0.00 0.00 0.00 0.00 0.00 0.00 0.00 0.00 0.00 0.00 0.00 0.00 0.00 0.00 0.00 0.00 0.00
0.00 0.00 0.00 0.00 0.00 0.00 0.00 0.00 0.00 0.00 0.00 0.00 0.00 0.00 0.00 0.00 0.00 0.00 0.00 0.00 0.00 0.00 0.00 0.00 0.00 0.00 0.00 0.00 0.00 0.00 0.00 0.00 0.00 0.00 0.00 0.00 0.00 0.00 0.00 0.00 0.00 0.00 0.00 0.00 0.00 0.00 0.00 0.01 0.00
0.00 0.00 0.00 0.00 0.00 0.00 0.00 0.00 0.00 0.00 0.00 0.00 0.00 0.00 0.00 0.00 0.00 0.00 0.00 0.00 0.00 0.00 0.00 0.00 0.00 0.00 0.00 0.00 0.00 0.00 0.00 0.00 0.00 0.00 0.00 0.00 0.00 0.00 0.00 0.00 0.00 0.00 0.00 0.00 0.00 0.01 0.01 0.03 0.01
0.00 0.00 0.00 0.00 0.00 0.00 0.00 0.00 0.00 0.00 0.00 0.00 0.00 0.00 0.00 0.00 0.00 0.00 0.00 0.00 0.00 0.00 0.00 0.00 0.00 0.00 0.00 0.00 0.00 0.00 0.00 0.00 0.00 0.00 0.00 0.00 0.00 0.00 0.00 0.00 0.00 0.00 0.00 0.00 0.00 0.02 0.01 0.02 0.05
0.00 0.00 0.00 0.00 0.00 0.00 0.00 0.00 0.00 0.00 0.00 0.00 0.00 0.00 0.00 0.00 0.00 0.00 0.00 0.00 0.00 0.00 0.00 0.00 0.00 0.00 0.00 0.00 0.00 0.00 0.00 0.00 0.00 0.00 0.00 0.00 0.00 0.00 0.00 0.00 0.00 0.00 0.00 0.00 0.01 0.02 0.01 0.02 0.05
0.00 0.00 0.00 0.00 0.00 0.00 0.00 0.00 0.00 0.00 0.00 0.00 0.00 0.00 0.00 0.00 0.00 0.00 0.00 0.00 0.00 0.00 0.00 0.00 0.00 0.00 0.00 0.00 0.00 0.00 0.00 0.00 0.00 0.00 0.00 0.00 0.00 0.00 0.00 0.00 0.00 0.00 0.00 0.00 0.01 0.03 0.03 0.05 0.08
0.00 0.00 0.00 0.00 0.00 0.00 0.00 0.00 0.00 0.00 0.00 0.00 0.00 0.00 0.00 0.00 0.00 0.00 0.00 0.00 0.00 0.00 0.00 0.00 0.00 0.00 0.00 0.00 0.00 0.00 0.00 0.00 0.00 0.00 0.00 0.00 0.00 0.00 0.00 0.00 0.00 0.01 0.00 0.00 0.01 0.06 0.08 0.08 0.09
0.00 0.00 0.00 0.00 0.00 0.00 0.00 0.00 0.00 0.00 0.00 0.00 0.00 0.00 0.00 0.00 0.00 0.00 0.00 0.00 0.00 0.00 0.00 0.00 0.00 0.00 0.00 0.00 0.00 0.00 0.00 0.00 0.00 0.00 0.00 0.00 0.00 0.00 0.00 0.00 0.00 0.01 0.01 0.01 0.01 0.05 0.08 0.10 0.10
0.00 0.00 0.00 0.00 0.00 0.00 0.00 0.00 0.00 0.00 0.00 0.00 0.00 0.00 0.00 0.00 0.00 0.00 0.00 0.00 0.00 0.00 0.00 0.00 0.00 0.00 0.00 0.00 0.00 0.00 0.00 0.00 0.00 0.00 0.00 0.00 0.00 0.00 0.00 0.00 0.00 0.01 0.01 0.03 0.02 0.06 0.09 0.10 0.10
0.00 0.00 0.00 0.00 0.00 0.00 0.00 0.00 0.00 0.00 0.00 0.00 0.00 0.00 0.00 0.00 0.00 0.00 0.00 0.00 0.00 0.00 0.00 0.00 0.00 0.00 0.00 0.00 0.00 0.00 0.00 0.00 0.00 0.00 0.00 0.00 0.00 0.00 0.00 0.00 0.00 0.00 0.01 0.02 0.06 0.06 0.05 0.02 0.04
0.00 0.00 0.00 0.00 0.00 0.00 0.00 0.00 0.00 0.00 0.00 0.00 0.00 0.00 0.00 0.00 0.00 0.00 0.00 0.00 0.00 0.00 0.00 0.00 0.00 0.00 0.00 0.00 0.00 0.00 0.00 0.00 0.00 0.00 0.00 0.00 0.00 0.00 0.00 0.00 0.00 0.00 0.00 0.00 0.02 0.03 0.01 0.00 0.01
0.00 0.00 0.00 0.00 0.00 0.00 0.00 0.00 0.00 0.00 0.00 0.00 0.00 0.00 0.00 0.00 0.00 0.00 0.00 0.00 0.00 0.00 0.00 0.00 0.00 0.00 0.00 0.00 0.00 0.00 0.00 0.00 0.00 0.00 0.00 0.00 0.00 0.00 0.00 0.00 0.00 0.00 0.00 0.00 0.04 0.04 0.02 0.00 0.00
0.00 0.00 0.00 0.00 0.00 0.00 0.00 0.00 0.00 0.00 0.00 0.00 0.00 0.00 0.00 0.00 0.00 0.00 0.00 0.00 0.00 0.00 0.00 0.00 0.00 0.00 0.00 0.00 0.00 0.00 0.00 0.00 0.00 0.00 0.00 0.00 0.00 0.00 0.00 0.00 0.00 0.00 0.00 0.00 0.00 0.00 0.01 0.00 0.00
0.00 0.00 0.00 0.00 0.00 0.00 0.00 0.00 0.00 0.00 0.00 0.00 0.00 0.00 0.00 0.00 0.00 0.00 0.00 0.00 0.00 0.00 0.00 0.00 0.00 0.00 0.00 0.00 0.00 0.00 0.00 0.00 0.00 0.00 0.00 0.00 0.00 0.00 0.00 0.00 0.00 0.00 0.00 0.00 0.01 0.01 0.00 0.00 0.00
0.00 0.00 0.00 0.00 0.00 0.00 0.00 0.00 0.00 0.00 0.00 0.00 0.00 0.00 0.00 0.00 0.00 0.00 0.00 0.00 0.00 0.00 0.00 0.00 0.00 0.00 0.00 0.00 0.00 0.00 0.00 0.00 0.00 0.00 0.00 0.00 0.00 0.00 0.00 0.00 0.00 0.00 0.00 0.00 0.00 0.00 0.00 0.00 0.00
0.00 0.00 0.00 0.00 0.00 0.00 0.00 0.00 0.00 0.00 0.00 0.00 0.00 0.00 0.00 0.00 0.00 0.00 0.00 0.00 0.00 0.00 0.00 0.00 0.00 0.00 0.00 0.00 0.00 0.00 0.00 0.00 0.00 0.00 0.00 0.00 0.00 0.00 0.00 0.00 0.00 0.00 0.00 0.00 0.00 0.01 0.00 0.00 0.00
0.00 0.00 0.00 0.00 0.00 0.00 0.00 0.00 0.00 0.00 0.00 0.00 0.00 0.00 0.00 0.00 0.00 0.00 0.00 0.00 0.00 0.00 0.00 0.00 0.00 0.00 0.00 0.00 0.00 0.00 0.00 0.00 0.00 0.00 0.00 0.00 0.00 0.00 0.00 0.00 0.00 0.00 0.00 0.00 0.00 0.00 0.00 0.00 0.00
0.00 0.00 0.00 0.00 0.00 0.00 0.00 0.00 0.00 0.00 0.00 0.00 0.00 0.00 0.00 0.00 0.00 0.00 0.00 0.00 0.00 0.00 0.00 0.00 0.00 0.00 0.00 0.00 0.00 0.00 0.00 0.00 0.00 0.00 0.00 0.00 0.00 0.00 0.00 0.00 0.00 0.00 0.00 0.00 0.00 0.00 0.00 0.00 0.00
0.00 0.00 0.00 0.00 0.00 0.00 0.00 0.00 0.00 0.00 0.00 0.00 0.00 0.00 0.00 0.00 0.00 0.00 0.00 0.00 0.00 0.00 0.00 0.00 0.00 0.00 0.00 0.00 0.00 0.00 0.00 0.00 0.00 0.00 0.00 0.00 0.00 0.00 0.00 0.00 0.00 0.00 0.00 0.00 0.00 0.00 0.00 0.00 0.00
0.00 0.00 0.00 0.00 0.00 0.00 0.00 0.00 0.00 0.00 0.00 0.00 0.00 0.00 0.00 0.00 0.00 0.00 0.00 0.00 0.00 0.00 0.00 0.00 0.00 0.00 0.00 0.00 0.00 0.00 0.00 0.00 0.00 0.00 0.00 0.00 0.00 0.00 0.00 0.00 0.00 0.00 0.00 0.00 0.00 0.00 0.00 0.00 0.00
MSLP
1012.56 1012.52 1012.49 1013.02 1014.95 1016.06 1015.77 1014.70 1013.62 1012.94 1012.61 1012.22 1012.16 1012.32 1012.61 1012.80 1013.34 1014.49 1014.09 1014.08 1014.14 1014.35 1014.46 1014.63 1014.78 1014.94 1015.04 1015.05 1015.05 1015.05 1014.99 1014.99 1015.05 1014.99 1014.93 1014.76 1014.56 1014.40 1014.17 1014.02 1013.93 1013.76 1013.60 1013.46 1013.38 1013.41 1013.58 1013.67 1013.89
1012.77 1012.68 1013.23 1014.59 1015.90 1016.65 1015.63 1014.15 1013.43 1012.83 1012.47 1012.36 1012.42 1012.56 1012.84 1012.98 1013.33 1013.92 1014.22 1014.19 1014.30 1014.54 1014.86 1015.04 1015.03 1015.08 1015.17 1015.21 1015.19 1015.09 1015.03 1014.95 1014.94 1015.00 1014.95 1014.85 1014.76 1014.58 1014.42 1014.23 1014.08 1013.93 1013.66 1013.51 1013.33 1013.26 1013.42 1013.62 1013.90
1012.78 1013.07 1014.32 1015.55 1016.35 1016.07 1015.17 1013.60 1013.03 1012.73 1012.67 1012.66 1012.72 1012.79 1012.87 1012.92 1013.31 1013.49 1013.47 1013.95 1014.39 1014.83 1015.10 1015.21 1015.23 1015.27 1015.30 1015.31 1015.31 1015.25 1015.13 1015.11 1015.02 1014.98 1014.92 1014.87 1014.79 1014.67 1014.52 1014.31 1014.05 1014.01 1013.83 1013.61 1013.40 1013.30 1013.35 1013.53 1013.64
1013.13 1013.99 1015.64 1015.71 1016.01 1014.93 1014.09 1013.07 1012.83 1012.72 1012.59 1012.68 1012.85 1013.14 1012.87 1012.42 1012.80 1012.96 1013.23 1013.73 1014.27 1014.72 1014.81 1014.86 1015.00 1015.19 1015.34 1015.41 1015.44 1015.41 1015.36 1015.19 1015.09 1015.04 1014.95 1014.85 1014.78 1014.73 1014.66 1014.48 1014.36 1014.17 1013.91 1013.68 1013.53 1013.43 1013.23 1013.21 1013.44
1013.85 1014.78 1015.79 1015.95 1015.27 1014.14 1013.44 1012.81 1012.83 1012.95 1012.81 1012.86 1012.99 1012.94 1012.82 1012.40 1012.67 1013.00 1013.30 1013.75 1014.15 1014.70 1014.84 1014.90 1015.00 1015.21 1015.29 1015.46 1015.53 1015.52 1015.43 1015.35 1015.21 1015.12 1015.11 1015.03 1014.92 1014.78 1014.66 1014.47 1014.33 1014.07 1013.79 1013.67 1013.50 1013.37 1013.29 1013.29 1013.33
1014.61 1015.42 1016.06 1015.83 1014.79 1013.65 1012.96 1012.72 1012.86 1012.90 1012.82 1012.93 1013.13 1013.18 1012.92 1012.78 1012.96 1013.39 1013.58 1013.88 1014.19 1014.58 1014.92 1015.03 1015.07 1015.19 1015.31 1015.31 1015.46 1015.58 1015.59 1015.54 1015.46 1015.32 1015.24 1015.16 1015.04 1014.91 1014.76 1014.59 1014.44 1014.11 1013.92 1013.85 1013.58 1013.32 1013.20 1013.21 1013.26
1014.55 1015.52 1015.64 1015.21 1014.41 1013.53 1012.67 1012.64 1012.83 1012.81 1012.74 1012.78 1012.67 1012.99 1012.81 1012.97 1012.96 1013.34 1013.66 1014.01 1014.35 1014.59 1014.89 1015.11 1015.21 1015.29 1015.34 1015.44 1015.48 1015.63 1015.70 1015.68 1015.66 1015.57 1015.39 1015.29 1015.21 1015.06 1014.83 1014.67 1014.54 1014.37 1014.14 1013.92 1013.65 1013.27 1013.07 1013.00 1012.95
1014.57 1015.22 1015.42 1014.81 1014.11 1013.08 1012.44 1012.44 1012.30 1012.59 1012.44 1012.44 1012.55 1012.70 1012.51 1012.61 1013.18 1013.64 1014.02 1014.34 1014.58 1014.78 1014.85 1015.08 1015.28 1015.44 1015.58 1015.64 1015.51 1015.55 1015.66 1015.77 1015.78 1015.82 1015.71 1015.54 1015.43 1015.28 1015.05 1014.80 1014.65 1014.34 1014.12 1013.92 1013.66 1013.34 1013.00 1012.76 1012.77
1014.19 1015.30 1015.42 1014.30 1013.75 1012.68 1012.38 1012.46 1012.22 1012.18 1012.47 1012.48 1012.27 1012.23 1012.21 1012.46 1013.45 1014.15 1014.59 1014.91 1014.95 1014.96 1014.89 1015.02 1015.29 1015.35 1015.48 1015.61 1015.71 1015.75 1015.77 1015.88 1015.93 1015.98 1015.89 1015.73 1015.60 1015.48 1015.23 1014.84 1014.56 1014.30 1014.09 1013.87 1013.54 1013.20 1012.86 1012.59 1012.79
1014.26 1015.13 1014.30 1013.54 1012.93 1012.63 1012.52 1012.63 1012.49 1012.51 1012.51 1012.44 1012.18 1012.04 1012.49 1012.87 1013.31 1013.94 1014.48 1014.80 1014.92 1014.86 1014.73 1014.81 1015.02 1015.19 1015.30 1015.43 1015.75 1015.96 1015.98 1016.08 1016.19 1016.20 1016.14 1015.95 1015.75 1015.62 1015.27 1014.90 1014.55 1014.26 1014.03 1013.75 1013.34 1013.00 1012.71 1012.81 1013.03
1014.16 1014.12 1013.54 1012.96 1012.87 1012.85 1012.84 1012.86 1012.69 1012.71 1012.15 1011.69 1011.79 1011.95 1012.60 1013.12 1013.57 1013.75 1014.04 1014.33 1014.34 1014.36 1014.53 1014.55 1014.75 1014.90 1015.22 1015.50 1015.83 1016.11 1016.27 1016.44 1016.43 1016.37 1016.27 1016.07 1015.81 1015.64 1015.41 1015.05 1014.61 1014.28 1013.90 1013.71 1013.27 1012.83 1012.66 1012.87 1013.01
1013.91 1013.45 1013.40 1012.98 1012.79 1013.10 1013.16 1013.02 1012.93 1012.65 1011.11 1011.08 1011.51 1011.86 1012.35 1013.02 1013.35 1013.40 1013.67 1013.77 1014.00 1014.19 1014.26 1014.29 1014.42 1014.87 1015.20 1015.49 1015.85 1016.19 1016.35 1016.50 1016.54 1016.39 1016.28 1016.19 1016.00 1015.81 1015.58 1015.20 1014.70 1014.34 1013.87 1013.69 1013.33 1012.92 1012.83 1012.96 1013.10
1013.83 1013.40 1013.30 1012.90 1012.95 1012.90 1013.09 1013.18 1013.23 1011.79 1011.01 1011.09 1011.42 1011.89 1012.23 1012.61 1012.77 1012.91 1013.18 1013.58 1013.80 1014.03 1014.17 1014.19 1014.33 1014.77 1015.10 1015.50 1015.91 1016.17 1016.46 1016.50 1016.42 1016.42 1016.29 1016.22 1016.11 1016.00 1015.67 1015.26 1014.74 1014.31 1013.89 1013.58 1013.43 1013.10 1012.93 1013.09 1013.23
1013.63 1013.46 1013.33 1013.08 1012.96 1012.84 1012.99 1012.94 1013.08 1010.71 1010.63 1010.76 1011.19 1011.58 1011.97 1012.18 1012.36 1012.86 1013.10 1013.29 1013.61 1013.70 1013.88 1014.10 1014.41 1014.75 1015.12 1015.71 1016.01 1016.26 1016.29 1016.33 1016.44 1016.36 1016.15 1015.92 1015.79 1015.65 1015.39 1015.05 1014.59 1014.10 1013.76 1013.53 1013.39 1013.11 1013.03 1013.33 1013.56
1013.68 1013.64 1013.13 1012.85 1012.97 1012.95 1012.93 1012.72 1012.02 1010.32 1010.75 1010.80 1011.06 1011.41 1011.72 1011.88 1012.19 1012.29 1012.47 1013.05 1013.20 1013.38 1013.75 1014.20 1014.53 1014.94 1015.40 1015.87 1016.18 1016.29 1016.35 1016.42 1016.43 1016.29 1016.04 1015.85 1015.63 1015.47 1015.32 1015.10 1014.53 1013.84 1013.53 1013.24 1013.16 1012.96 1012.98 1013.47 1013.71
1014.11 1014.07 1013.84 1013.03 1013.05 1013.15 1013.13 1012.02 1010.40 1010.34 1010.85 1010.78 1010.89 1011.25 1011.55 1011.71 1011.79 1011.89 1012.15 1012.54 1012.99 1013.39 1013.78 1014.41 1014.76 1015.40 1015.80 1016.03 1016.19 1016.27 1016.31 1016.38 1016.36 1016.20 1016.04 1015.79 1015.50 1015.23 1015.06 1014.87 1014.54 1013.80 1013.69 1013.62 1013.39 1013.07 1013.15 1013.55 1013.81
1014.65 1014.53 1014.12 1013.26 1013.09 1013.04 1013.23 1011.86 1010.58 1010.44 1010.78 1010.82 1010.85 1010.94 1011.43 1011.58 1011.66 1011.69 1011.93 1012.43 1012.94 1013.45 1014.00 1014.56 1015.07 1015.56 1015.84 1016.04 1016.12 1016.27 1016.37 1016.37 1016.27 1016.15 1016.00 1015.65 1015.29 1015.03 1014.95 1014.61 1014.16 1013.75 1013.55 1013.37 1013.46 1012.91 1013.18 1013.46 1013.83
1014.56 1014.50 1013.97 1013.93 1013.46 1013.26 1013.17 1011.68 1010.69 1010.43 1010.68 1010.37 1010.62 1010.82 1011.20 1011.41 1011.48 1011.72 1012.12 1012.57 1013.19 1013.87 1014.35 1014.89 1015.45 1015.78 1015.95 1016.11 1016.35 1016.43 1016.46 1016.35 1016.23 1016.09 1015.70 1015.21 1015.02 1014.77 1014.72 1014.41 1014.13 1013.78 1013.51 1013.21 1013.28 1012.91 1013.23 1013.47 1013.69
1014.05 1014.22 1014.20 1013.69 1013.48 1013.45 1012.93 1011.76 1010.46 1009.79 1009.96 1010.10 1010.24 1010.62 1010.82 1011.24 1011.52 1011.86 1012.46 1013.01 1013.66 1014.31 1014.76 1015.38 1015.58 1015.94 1016.14 1016.43 1016.65 1016.76 1016.76 1016.55 1016.29 1015.81 1015.61 1015.36 1015.07 1014.83 1014.66 1014.47 1014.14 1013.65 1013.48 1013.01 1012.77 1012.38 1013.02 1013.68 1014.15
1014.44 1014.48 1014.20 1013.68 1013.73 1013.70 1013.00 1011.00 1009.67 1009.46 1009.39 1009.44 1009.70 1010.11 1010.50 1011.22 1011.78 1012.45 1012.98 1013.52 1014.01 1014.49 1015.11 1015.59 1015.76 1016.03 1016.31 1016.47 1016.66 1016.67 1016.66 1016.55 1016.38 1015.86 1015.80 1015.52 1015.26 1014.93 1014.63 1014.51 1014.27 1013.84 1013.34 1012.94 1012.57 1012.72 1013.07 1014.00 1014.21
1014.65 1014.68 1014.38 1014.33 1014.14 1013.91 1013.54 1011.25 1009.61 1009.03 1008.99 1009.04 1009.47 1009.91 1010.41 1011.12 1011.90 1012.67 1013.35 1013.97 1014.46 1014.82 1015.32 1015.57 1015.88 1016.06 1016.32 1016.52 1016.60 1016.62 1016.74 1016.61 1016.37 1016.07 1016.14 1015.82 1015.29 1014.98 1014.82 1014.53 1014.27 1013.94 1013.52 1013.03 1012.67 1012.87 1013.16 1013.76 1014.38
1014.84 1014.58 1014.58 1014.45 1015.05 1015.17 1014.13 1012.95 1010.13 1009.07 1008.89 1008.78 1009.20 1009.83 1010.45 1011.06 1011.80 1012.66 1013.44 1014.15 1014.63 1015.01 1015.45 1015.76 1015.88 1016.02 1016.29 1016.55 1016.54 1016.70 1016.91 1016.97 1016.74 1016.77 1016.58 1016.01 1015.40 1015.03 1014.75 1014.59 1014.32 1014.04 1013.59 1012.98 1012.66 1012.84 1013.23 1013.51 1014.24
1014.96 1015.17 1015.47 1015.40 1015.63 1015.77 1014.87 1014.40 1009.66 1009.11 1008.42 1008.16 1008.83 1009.63 1010.35 1011.19 1011.71 1012.38 1013.11 1013.94 1014.53 1014.97 1015.44 1015.83 1015.97 1016.07 1016.40 1016.52 1016.63 1016.99 1017.05 1016.89 1016.69 1016.81 1016.86 1016.26 1015.75 1015.13 1014.80 1014.76 1014.52 1014.16 1013.87 1013.31 1013.01 1013.05 1013.11 1013.64 1014.12
1015.34 1016.08 1016.62 1016.91 1016.80 1016.73 1014.84 1014.24 1010.58 1009.02 1007.83 1007.66 1008.16 1009.33 1010.25 1010.99 1011.56 1012.36 1012.97 1013.93 1014.67 1015.19 1015.46 1015.76 1016.05 1016.23 1016.47 1016.59 1016.67 1016.97 1016.98 1017.03 1017.00 1017.07 1017.06 1016.73 1016.02 1015.42 1015.05 1014.89 1014.79 1014.41 1014.10 1013.76 1013.39 1013.32 1013.34 1013.88 1014.54
1015.98 1016.82 1018.03 1018.46 1018.39 1016.94 1015.49 1014.63 1010.03 1008.12 1007.53 1007.54 1008.02 1008.97 1009.92 1010.73 1011.41 1012.21 1012.97 1013.78 1014.57 1015.39 1015.77 1015.69 1015.95 1016.42 1016.51 1016.60 1016.72 1016.81 1017.07 1017.11 1017.10 1017.12 1017.17 1017.21 1016.45 1015.72 1015.43 1015.29 1015.11 1014.87 1014.43 1013.99 1013.61 1013.73 1013.94 1014.23 1014.79
1016.56 1016.96 1017.87 1018.31 1018.99 1017.32 1015.80 1013.61 1008.92 1007.58 1007.18 1007.45 1007.97 1008.55 1009.60 1010.57 1011.15 1011.83 1012.61 1013.42 1014.28 1015.05 1015.63 1015.90 1015.96 1016.44 1016.50 1016.57 1016.87 1016.90 1017.07 1016.99 1016.98 1016.96 1016.85 1017.13 1016.77 1016.26 1015.79 1015.58 1015.48 1015.16 1014.76 1014.35 1014.04 1013.99 1014.26 1014.67 1015.01
1016.92 1017.04 1017.05 1017.83 1019.58 1017.74 1014.96 1012.13 1008.72 1007.25 1007.23 1007.55 1008.07 1008.69 1009.43 1010.18 1011.06 1011.62 1012.75 1013.22 1014.10 1014.84 1015.23 1015.68 1016.08 1016.39 1016.36 1016.57 1016.79 1016.98 1017.00 1016.71 1016.86 1016.88 1016.59 1016.66 1016.54 1016.47 1015.95 1015.74 1015.55 1015.31 1015.00 1014.68 1014.42 1014.13 1014.49 1014.78 1015.30
1016.57 1016.89 1017.28 1017.95 1018.59 1017.40 1014.73 1012.81 1009.76 1007.54 1007.51 1007.66 1008.26 1008.74 1009.40 1009.99 1010.81 1011.51 1012.42 1013.15 1014.18 1014.58 1015.05 1015.33 1015.99 1016.31 1016.24 1016.55 1016.60 1016.87 1016.79 1016.73 1016.67 1016.65 1016.49 1016.38 1016.35 1016.33 1016.19 1015.96 1015.77 1015.55 1015.27 1014.91 1014.67 1014.46 1014.45 1014.86 1015.36
1017.01 1016.86 1017.19 1017.43 1017.43 1016.72 1015.21 1011.76 1009.12 1008.12 1007.82 1007.79 1008.42 1008.84 1009.18 1009.58 1010.25 1011.12 1012.10 1012.89 1013.80 1014.43 1015.13 1015.29 1015.70 1016.29 1016.22 1016.49 1016.42 1016.62 1016.74 1016.59 1016.40 1016.34 1016.38 1016.35 1016.28 1016.15 1015.91 1015.80 1015.65 1015.33 1015.17 1015.01 1014.72 1014.66 1014.86 1015.18 1015.67
1016.53 1016.28 1016.48 1017.00 1017.50 1017.09 1015.49 1011.63 1008.65 1008.24 1008.12 1008.23 1008.60 1009.07 1009.40 1009.75 1010.33 1011.03 1012.16 1012.80 1013.78 1014.46 1014.92 1015.31 1015.47 1016.18 1016.17 1016.33 1016.20 1016.45 1016.67 1016.46 1016.28 1016.29 1015.86 1016.07 1015.83 1015.84 1015.86 1015.64 1015.51 1015.17 1015.09 1014.97 1014.74 1014.82 1015.08 1015.55 1016.11
Thickness
5717 5717 5718 5709 5678 5661 5659 5670 5688 5693 5695 5701 5701 5699 5696 5696 5692 5675 5691 5692 5692 5690 5687 5685 5683 5681 5680 5679 5678 5677 5677 5675 5674 5673 5672 5673 5673 5674 5675 5675 5676 5677 5678 5678 5679 5677 5676 5676 5674
5714 5715 5708 5686 5661 5650 5655 5676 5685 5693 5698 5698 5698 5696 5693 5690 5692 5688 5686 5688 5686 5684 5680 5678 5676 5675 5674 5673 5673 5673 5673 5672 5671 5669 5668 5667 5667 5668 5668 5669 5670 5670 5672 5673 5674 5675 5672 5671 5669
5712 5709 5694 5672 5647 5652 5662 5686 5692 5696 5695 5695 5693 5694 5693 5693 5691 5689 5691 5687 5683 5678 5674 5672 5670 5669 5668 5667 5666 5666 5667 5666 5665 5664 5664 5663 5662 5663 5663 5664 5664 5664 5665 5667 5668 5668 5668 5665 5665
5705 5698 5680 5669 5665 5673 5681 5697 5694 5694 5697 5696 5694 5686 5692 5700 5696 5694 5691 5687 5682 5678 5675 5673 5669 5666 5663 5661 5659 5659 5658 5659 5659 5659 5658 5658 5658 5657 5656 5657 5656 5657 5658 5660 5661 5661 5663 5663 5661
5697 5685 5667 5667 5670 5683 5685 5696 5689 5689 5692 5691 5690 5688 5689 5698 5697 5693 5690 5686 5681 5676 5673 5669 5665 5662 5659 5655 5653 5652 5652 5651 5652 5652 5651 5651 5651 5651 5650 5650 5650 5651 5652 5653 5654 5655 5655 5656 5655
5684 5676 5663 5662 5671 5687 5695 5694 5688 5688 5689 5688 5686 5684 5687 5693 5692 5688 5685 5682 5678 5673 5668 5664 5661 5658 5654 5653 5649 5646 5644 5643 5643 5644 5644 5643 5643 5643 5643 5643 5642 5644 5644 5644 5645 5647 5648 5648 5647
5683 5669 5666 5669 5672 5681 5694 5688 5688 5686 5687 5684 5690 5682 5688 5688 5690 5686 5681 5677 5674 5669 5665 5660 5657 5654 5650 5647 5644 5640 5637 5636 5634 5634 5635 5635 5635 5635 5636 5636 5635 5634 5634 5634 5636 5639 5640 5640 5640
5677 5672 5671 5667 5670 5681 5694 5692 5694 5688 5686 5689 5687 5680 5685 5689 5684 5680 5675 5671 5667 5665 5661 5657 5653 5649 5645 5642 5639 5636 5632 5629 5627 5625 5625 5626 5626 5626 5627 5627 5626 5626 5626 5626 5627 5629 5631 5633 5631
5681 5662 5655 5675 5671 5688 5691 5688 5692 5691 5686 5686 5687 5687 5690 5686 5677 5671 5667 5662 5660 5658 5656 5653 5648 5645 5641 5637 5633 5629 5627 5623 5620 5617 5616 5617 5618 5617 5617 5617 5617 5617 5616 5617 5618 5620 5622 5624 5622
5673 5653 5668 5679 5683 5687 5688 5684 5686 5685 5680 5679 5684 5687 5683 5679 5676 5669 5663 5658 5656 5654 5653 5650 5645 5641 5637 5632 5627 5622 5619 5616 5611 5608 5607 5607 5607 5606 5607 5608 5607 5607 5607 5608 5610 5611 5613 5613 5612
5671 5666 5676 5684 5683 5682 5682 5679 5682 5679 5677 5680 5682 5684 5678 5673 5668 5667 5663 5659 5656 5653 5650 5646 5642 5638 5633 5627 5621 5615 5610 5605 5602 5599 5597 5596 5597 5596 5596 5596 5597 5597 5598 5598 5600 5602 5604 5603 5603
5673 5676 5677 5681 5683 5677 5676 5676 5676 5672 5689 5693 5683 5684 5676 5670 5666 5666 5662 5660 5656 5649 5647 5644 5640 5634 5628 5621 5614 5607 5602 5597 5594 5591 5589 5587 5585 5584 5583 5583 5584 5584 5586 5585 5586 5588 5590 5591 5593
5671 5676 5676 5678 5675 5676 5673 5668 5669 5676 5686 5683 5680 5677 5674 5669 5668 5666 5661 5656 5651 5646 5642 5639 5636 5629 5622 5615 5607 5601 5594 5590 5586 5582 5578 5575 5573 5572 5570 5570 5570 5570 5571 5572 5572 5574 5577 5578 5580
5670 5670 5667 5669 5672 5674 5671 5670 5666 5689 5688 5687 5679 5674 5671 5668 5667 5661 5657 5654 5648 5645 5640 5635 5629 5623 5616 5607 5600 5594 5590 5584 5577 5572 5569 5566 5562 5560 5557 5556 5555 5555 5555 5555 5557 5562 5564 5565 5567
5665 5662 5663 5668 5666 5668 5666 5670 5659 5687 5683 5680 5677 5674 5668 5666 5663 5662 5659 5652 5647 5643 5637 5629 5623 5615 5608 5600 5592 5587 5581 5574 5568 5563 5559 5555 5550 5545 5540 5537 5536 5537 5537 5540 5542 5546 5550 5551 5553
5655 5654 5651 5666 5660 5661 5663 5668 5682 5682 5677 5679 5675 5670 5668 5665 5663 5661 5658 5652 5645 5639 5632 5622 5616 5606 5599 5593 5586 5579 5572 5565 5559 5554 5548 5541 5536 5530 5523 5517 5513 5516 5517 5520 5525 5533 5538 5539 5542
5639 5642 5645 5653 5654 5657 5654 5664 5675 5674 5677 5672 5671 5669 5664 5663 5662 5659 5655 5648 5641 5634 5625 5617 5608 5600 5593 5587 5580 5571 5563 5557 5550 5542 5534 5529 5521 5510 5500 5494 5493 5496 5503 5509 5512 5523 5527 5531 5533
5639 5636 5641 5640 5651 5649 5647 5660 5670 5667 5670 5672 5667 5662 5658 5659 5660 5656 5650 5643 5635 5625 5618 5609 5601 5593 5588 5580 5571 5564 5556 5547 5539 5530 5524 5516 5502 5490 5478 5477 5480 5485 5492 5503 5507 5515 5519 5523 5526
5642 5639 5638 5642 5642 5641 5640 5652 5667 5672 5665 5663 5661 5657 5653 5653 5656 5649 5642 5634 5625 5617 5611 5601 5596 5588 5580 5571 5564 5555 5545 5537 5528 5520 5508 5495 5483 5473 5471 5470 5474 5483 5489 5498 5505 5513 5515 5515 5518
5631 5630 5628 5634 5635 5633 5636 5661 5671 5666 5670 5671 5671 5670 5661 5650 5647 5639 5631 5626 5620 5612 5604 5596 5591 5583 5574 5566 5557 5548 5538 5528 5518 5507 5493 5480 5470 5468 5468 5469 5474 5481 5488 5494 5501 5506 5510 5508 5514
5621 5620 5627 5628 5624 5627 5623 5653 5673 5672 5670 5671 5667 5664 5658 5647 5641 5632 5626 5619 5612 5606 5599 5593 5586 5579 5570 5562 5553 5544 5531 5521 5510 5496 5481 5469 5466 5469 5468 5471 5476 5480 5486 5493 5501 5505 5509 5510 5511
5618 5619 5624 5626 5617 5613 5620 5620 5660 5664 5660 5666 5663 5659 5656 5645 5638 5630 5622 5614 5608 5603 5595 5589 5583 5577 5567 5558 5551 5540 5525 5513 5500 5484 5472 5465 5467 5471 5472 5475 5479 5482 5490 5500 5507 5509 5511 5514 5516
5613 5610 5610 5611 5605 5603 5615 5603 5657 5656 5670 5672 5662 5653 5649 5640 5635 5630 5623 5615 5607 5599 5592 5585 5579 5572 5564 5557 5547 5534 5521 5510 5495 5482 5468 5465 5466 5473 5477 5479 5481 5486 5492 5502 5509 5512 5518 5519 5522
5594 5598 5585 5576 5581 5550 5614 5603 5645 5657 5670 5675 5668 5654 5647 5638 5634 5629 5621 5612 5602 5594 5588 5582 5576 5569 5562 5556 5546 5533 5520 5506 5493 5481 5471 5467 5471 5477 5481 5483 5485 5492 5497 5503 5510 5515 5520 5520 5519
5591 5584 5541 5550 5530 5575 5587 5591 5644 5665 5664 5670 5671 5656 5645 5638 5632 5626 5617 5608 5600 5591 5583 5580 5574 5567 5561 5555 5546 5534 5519 5505 5494 5484 5474 5471 5476 5482 5485 5488 5493 5497 5502 5508 5514 5516 5517 5518 5520
5573 5580 5550 5561 5564 5577 5582 5594 5651 5660 5664 5658 5656 5659 5645 5636 5633 5626 5617 5608 5600 5592 5582 5577 5573 5566 5561 5556 5546 5535 5522 5508 5498 5489 5484 5479 5481 5486 5492 5496 5498 5503 5507 5512 5516 5519 5519 5519 5520
5567 5556 5575 5530 5475 5538 5589 5610 5651 5657 5652 5657 5655 5645 5641 5635 5630 5625 5612 5606 5598 5591 5585 5577 5571 5565 5562 5557 5548 5538 5526 5518 5507 5499 5496 5492 5494 5496 5501 5504 5506 5508 5511 5514 5517 5523 5523 5524 5523
5560 5560 5553 5525 5561 5554 5568 5591 5627 5661 5660 5650 5649 5642 5638 5634 5629 5623 5612 5604 5594 5591 5585 5579 5570 5565 5564 5558 5552 5543 5535 5527 5520 5515 5512 5511 5509 5507 5508 5509 5510 5512 5514 5518 5522 5526 5530 5530 5529
5543 5532 5550 5553 5547 5547 5538 5593 5621 5645 5647 5649 5641 5637 5635 5632 5631 5623 5612 5603 5595 5589 5581 5578 5572 5564 5563 5560 5555 5548 5541 5535 5533 5530 5526 5523 5521 5519 5518 5517 5517 5520 5522 5523 5528 5530 5530 5531 5529
5535 5555 5554 5552 5541 5511 5529 5579 5626 5634 5636 5635 5632 5630 5630 5627 5625 5620 5608 5600 5590 5585 5580 5576 5573 5564 5563 5561 5558 5552 5544 5541 5540 5539 5539 5534 5533 5530 5527 5528 5528 5530 5531 5531 5534 5535 5534 5533 5530